パンスターズ彗星

P/2020 O3 ( PanSTARRS )

English version
Home page
Updated on May 13, 2024

---------------------------------------------------------------------

・ プロフィール

発見日 2020年7月28日
発見光度 21.0等
発見者 Pan-STARRS 1 telescope (Haleakala)

・ 軌道要素

Epoch 2023 Feb. 25.0 TT = JDT 2460000.5
T 2021 Jan. 30.52522 TT                                 Rudenko
q   4.1682563            (2000.0)            P               Q
n   0.09835374     Peri.   81.66807     +0.96916986     +0.19802391
a   4.6481001      Node   266.81881     -0.24037034     +0.89063727
e   0.1032344      Incl.    8.44399     +0.05414685     +0.40933089
P  10.0
>From 71 observations 2020 July 20-Nov. 26, mean residual 0".3.

・ 光度変化

        m1 = 12.0 + 5 logΔ + 10.0 log r

---------------------------------------------------------------------

軌道要素はM.P.E.C. 2023-C45に掲載されたものです。
光度グラフはComet for Windowsで作成したものです。

---------------------------------------------------------------------

Copyright(C) Seiichi Yoshida (comet@aerith.net). All rights reserved.